SIA447 VGHS-WSSS

Flight info

Callsign SIA447
Flight time 3h 27m
Altitude 37000
Route ADMIL2 ADMIL G463 ONEKA B594 CTG G463 BGO V7 DWI M626 IKOGA Y24 PASVA Y514 NUFFA DCT PIBAP DCT PASPU DCT NYLON DCT POSUB DCT SANAT
Aircraft B77W/H-SDE1E2E3FGHIJ4J5M1P2RWXYZ/LB1D1

Departure

Time 2026-05-08 13:25
Airport Hazrat Shahjalal International Airport (VGHS)

Arrival

Time 2026-05-08 16:52
Airport Singapore Changi Airport (WSSS)
Time Latitude Longitude Altitude Speed Heading
2026-05-08 12:59 23.84784 90.40380 41 ft 0 kts 54°
2026-05-08 13:15 23.84775 90.40367 40 ft 4 kts 54°
2026-05-08 13:16 23.84759 90.40343 38 ft 3 kts 54°
2026-05-08 13:16 23.84748 90.40322 37 ft 4 kts 92°
2026-05-08 13:16 23.84758 90.40299 38 ft 4 kts 139°
2026-05-08 13:16 23.84775 90.40284 38 ft 1 kts 143°
2026-05-08 13:17 23.84778 90.40281 37 ft 0 kts 143°
2026-05-08 13:19 23.84771 90.40287 38 ft 5 kts 143°
2026-05-08 13:19 23.84731 90.40320 39 ft 8 kts 144°
2026-05-08 13:19 23.84690 90.40307 41 ft 7 kts 224°
2026-05-08 13:19 23.84654 90.40258 41 ft 9 kts 232°
2026-05-08 13:20 23.84599 90.40240 41 ft 9 kts 157°
2026-05-08 13:20 23.84529 90.40293 41 ft 17 kts 143°
2026-05-08 13:20 23.84410 90.40388 41 ft 25 kts 143°
2026-05-08 13:20 23.84257 90.40509 41 ft 28 kts 144°
2026-05-08 13:21 23.84101 90.40633 41 ft 28 kts 144°
2026-05-08 13:21 23.84014 90.40702 41 ft 28 kts 144°
2026-05-08 13:21 23.83858 90.40826 40 ft 28 kts 144°
2026-05-08 13:21 23.83703 90.40950 41 ft 28 kts 144°
2026-05-08 13:22 23.83560 90.41063 41 ft 21 kts 144°
2026-05-08 13:22 23.83497 90.41113 41 ft 8 kts 144°
2026-05-08 13:22 23.83450 90.41105 41 ft 7 kts 227°
2026-05-08 13:22 23.83415 90.41060 41 ft 10 kts 231°
2026-05-08 13:23 23.83353 90.40967 41 ft 18 kts 234°
2026-05-08 13:23 23.83281 90.40858 41 ft 18 kts 234°
2026-05-08 13:23 23.83216 90.40759 41 ft 14 kts 234°
2026-05-08 13:23 23.83203 90.40687 41 ft 10 kts 304°
2026-05-08 13:24 23.83278 90.40620 41 ft 27 kts 324°
2026-05-08 13:24 23.83610 90.40356 43 ft 97 kts 324°
2026-05-08 13:24 23.84351 90.39766 41 ft 164 kts 323°
2026-05-08 13:24 23.85370 90.38945 387 ft 185 kts 323°
2026-05-08 13:25 23.86414 90.38099 1067 ft 192 kts 324°
2026-05-08 13:25 23.87485 90.37217 1750 ft 194 kts 323°
2026-05-08 13:25 23.88691 90.36468 2086 ft 212 kts 347°
2026-05-08 13:25 23.90232 90.36545 2316 ft 239 kts 20°
2026-05-08 13:26 23.91645 90.37612 2720 ft 258 kts 51°
2026-05-08 13:26 23.92431 90.39401 3385 ft 269 kts 79°
2026-05-08 13:26 23.92365 90.41448 4121 ft 275 kts 107°
2026-05-08 13:26 23.91451 90.43283 4878 ft 278 kts 131°
2026-05-08 13:27 23.90047 90.44756 5636 ft 281 kts 144°
2026-05-08 13:27 23.88390 90.45921 6368 ft 286 kts 152°
2026-05-08 13:27 23.86632 90.46965 7119 ft 289 kts 153°
2026-05-08 13:27 23.84842 90.48011 7836 ft 294 kts 153°
2026-05-08 13:28 23.83036 90.49086 8601 ft 298 kts 153°
2026-05-08 13:28 23.81214 90.50194 9361 ft 302 kts 152°
2026-05-08 13:28 23.79372 90.51337 10080 ft 307 kts 152°
2026-05-08 13:28 23.77476 90.52539 10454 ft 327 kts 151°
2026-05-08 13:29 23.75451 90.53868 10623 ft 352 kts 150°
2026-05-08 13:29 23.73304 90.55332 10803 ft 375 kts 149°
2026-05-08 13:29 23.71063 90.56904 11205 ft 389 kts 149°
2026-05-08 13:29 23.68727 90.58448 11812 ft 396 kts 151°
2026-05-08 13:30 23.66333 90.59965 12524 ft 399 kts 152°
2026-05-08 13:30 23.63918 90.61487 13317 ft 402 kts 152°
2026-05-08 13:30 23.61494 90.63023 14029 ft 405 kts 152°
2026-05-08 13:30 23.59055 90.64578 14699 ft 408 kts 152°
2026-05-08 13:31 23.56599 90.66149 15368 ft 411 kts 152°
2026-05-08 13:31 23.54122 90.67732 16040 ft 414 kts 152°
2026-05-08 13:31 23.51628 90.69329 16704 ft 417 kts 152°
2026-05-08 13:31 23.49196 90.71100 17350 ft 424 kts 146°
2026-05-08 13:32 23.46903 90.73139 18007 ft 428 kts 143°
2026-05-08 13:32 23.44610 90.75235 18564 ft 432 kts 143°
2026-05-08 13:32 23.42294 90.77347 19093 ft 436 kts 144°
2026-05-08 13:32 23.39950 90.79468 19622 ft 440 kts 144°
2026-05-08 13:33 23.37611 90.81570 20160 ft 444 kts 144°
2026-05-08 13:33 23.35212 90.83717 20698 ft 448 kts 145°
2026-05-08 13:33 23.32793 90.85881 21224 ft 452 kts 145°
2026-05-08 13:33 23.30359 90.88067 21780 ft 456 kts 145°
2026-05-08 13:34 23.27901 90.90279 22293 ft 460 kts 146°
2026-05-08 13:34 23.25421 90.92512 22807 ft 465 kts 146°
2026-05-08 13:34 23.22924 90.94761 23322 ft 468 kts 146°
2026-05-08 13:34 23.20403 90.97027 23760 ft 472 kts 146°
2026-05-08 13:35 23.17865 90.99306 24190 ft 475 kts 146°
2026-05-08 13:35 23.15317 91.01612 24620 ft 478 kts 146°
2026-05-08 13:35 23.12760 91.03943 25037 ft 481 kts 146°
2026-05-08 13:35 23.10188 91.06294 25434 ft 485 kts 146°
2026-05-08 13:36 23.07597 91.08662 25819 ft 488 kts 146°
2026-05-08 13:36 23.04990 91.11041 26208 ft 491 kts 146°
2026-05-08 13:36 23.02366 91.13434 26592 ft 494 kts 146°
2026-05-08 13:36 22.99725 91.15839 26962 ft 498 kts 146°
2026-05-08 13:37 22.97061 91.18262 27326 ft 501 kts 146°
2026-05-08 13:37 22.94383 91.20698 27690 ft 504 kts 146°
2026-05-08 13:37 22.91687 91.23149 28016 ft 507 kts 146°
2026-05-08 13:37 22.88978 91.25610 28342 ft 510 kts 146°
2026-05-08 13:38 22.86251 91.28086 28655 ft 513 kts 146°
2026-05-08 13:38 22.83509 91.30575 28952 ft 516 kts 146°
2026-05-08 13:38 22.80787 91.33044 29238 ft 518 kts 146°
2026-05-08 13:38 22.78017 91.35557 29521 ft 521 kts 146°
2026-05-08 13:39 22.75236 91.38081 29845 ft 522 kts 146°
2026-05-08 13:39 22.72454 91.40607 30178 ft 522 kts 146°
2026-05-08 13:39 22.69678 91.43125 30565 ft 520 kts 146°
2026-05-08 13:39 22.66910 91.45635 30957 ft 518 kts 146°
2026-05-08 13:40 22.64146 91.48139 31320 ft 517 kts 146°
2026-05-08 13:40 22.61385 91.50637 31703 ft 517 kts 146°
2026-05-08 13:40 22.58632 91.53128 32075 ft 516 kts 146°
2026-05-08 13:40 22.55883 91.55614 32461 ft 515 kts 146°
2026-05-08 13:41 22.53137 91.58099 32840 ft 514 kts 147°
2026-05-08 13:41 22.50406 91.60572 33222 ft 513 kts 147°
2026-05-08 13:41 22.47670 91.63049 33591 ft 512 kts 147°
2026-05-08 13:41 22.44942 91.65518 33942 ft 511 kts 147°
2026-05-08 13:42 22.42222 91.67977 34279 ft 510 kts 147°
2026-05-08 13:42 22.40423 91.69604 34510 ft 509 kts 147°
2026-05-08 13:42 22.37711 91.72054 34843 ft 507 kts 147°
2026-05-08 13:42 22.35008 91.74495 35162 ft 506 kts 147°
2026-05-08 13:43 22.31435 91.77719 35584 ft 505 kts 147°
2026-05-08 13:43 22.28741 91.80148 35910 ft 504 kts 147°
2026-05-08 13:43 22.26058 91.82566 36225 ft 503 kts 146°
2026-05-08 13:43 22.24243 91.84198 36428 ft 502 kts 147°
2026-05-08 13:44 22.21555 91.86598 36732 ft 501 kts 147°
2026-05-08 13:44 22.18856 91.88997 36778 ft 505 kts 147°
2026-05-08 13:44 22.13428 91.93821 36821 ft 504 kts 147°
2026-05-08 13:45 22.08060 91.98599 36822 ft 498 kts 147°
2026-05-08 13:45 22.02722 92.03344 36830 ft 497 kts 147°
2026-05-08 13:46 21.97389 92.08080 36839 ft 496 kts 147°
2026-05-08 13:46 21.92053 92.12800 36843 ft 496 kts 147°
2026-05-08 13:47 21.86674 92.17471 36846 ft 497 kts 147°
2026-05-08 13:47 21.81282 92.22138 36852 ft 498 kts 147°
2026-05-08 13:48 21.75881 92.26823 36851 ft 499 kts 147°
2026-05-08 13:48 21.70472 92.31517 36852 ft 500 kts 147°
2026-05-08 13:49 21.65154 92.36266 36853 ft 503 kts 143°
2026-05-08 13:49 21.60019 92.41378 36853 ft 504 kts 142°
2026-05-08 13:50 21.54913 92.46533 36856 ft 503 kts 142°
2026-05-08 13:50 21.49802 92.51662 36857 ft 502 kts 142°
2026-05-08 13:51 21.45828 92.55627 36847 ft 499 kts 143°
2026-05-08 13:51 21.40738 92.60694 36851 ft 499 kts 142°
2026-05-08 13:52 21.35644 92.65757 36836 ft 499 kts 142°
2026-05-08 13:52 21.30560 92.70801 36845 ft 498 kts 142°
2026-05-08 13:53 21.25472 92.75855 36854 ft 499 kts 142°
2026-05-08 13:53 21.20372 92.80922 36859 ft 501 kts 142°
2026-05-08 13:54 21.15250 92.85993 36836 ft 502 kts 142°
2026-05-08 13:54 21.10123 92.91059 36843 ft 501 kts 142°
2026-05-08 13:55 21.05004 92.96119 36848 ft 501 kts 142°
2026-05-08 13:56 20.97340 93.03687 36843 ft 499 kts 142°
2026-05-08 13:56 20.92248 93.08710 36851 ft 498 kts 142°
2026-05-08 13:57 20.87162 93.13721 36847 ft 496 kts 142°
2026-05-08 13:57 20.82083 93.18720 36841 ft 496 kts 142°
2026-05-08 13:58 20.77004 93.23714 36846 ft 496 kts 142°
2026-05-08 13:58 20.71935 93.28694 36851 ft 495 kts 142°
2026-05-08 13:59 20.66869 93.33666 36855 ft 494 kts 142°
2026-05-08 13:59 20.61801 93.38635 36861 ft 494 kts 142°
2026-05-08 14:00 20.56738 93.43595 36860 ft 494 kts 142°
2026-05-08 14:00 20.51699 93.48526 36863 ft 495 kts 142°
2026-05-08 14:01 20.46618 93.53493 36871 ft 496 kts 142°
2026-05-08 14:01 20.41535 93.58460 36858 ft 495 kts 142°
2026-05-08 14:02 20.36461 93.63413 36867 ft 495 kts 142°
2026-05-08 14:02 20.31385 93.68361 36860 ft 494 kts 142°
2026-05-08 14:03 20.26313 93.73302 36850 ft 494 kts 142°
2026-05-08 14:03 20.21252 93.78229 36875 ft 492 kts 142°
2026-05-08 14:04 20.16195 93.83146 36852 ft 492 kts 142°
2026-05-08 14:04 20.11148 93.88050 36846 ft 491 kts 142°
2026-05-08 14:05 20.06101 93.92947 36847 ft 491 kts 142°
2026-05-08 14:05 20.01052 93.97842 36865 ft 491 kts 142°
2026-05-08 14:06 19.96036 94.02702 36873 ft 491 kts 142°
2026-05-08 14:06 19.90986 94.07590 36864 ft 491 kts 142°
2026-05-08 14:07 19.85935 94.12475 36871 ft 491 kts 142°
2026-05-08 14:07 19.80879 94.17360 36877 ft 491 kts 142°
2026-05-08 14:08 19.75830 94.22234 36877 ft 490 kts 142°
2026-05-08 14:08 19.70786 94.27099 36880 ft 490 kts 142°
2026-05-08 14:09 19.65733 94.31968 36873 ft 491 kts 142°
2026-05-08 14:09 19.60678 94.36835 36868 ft 491 kts 142°
2026-05-08 14:10 19.55626 94.41694 36868 ft 491 kts 142°
2026-05-08 14:10 19.50572 94.46554 36872 ft 490 kts 142°
2026-05-08 14:11 19.45514 94.51409 36867 ft 491 kts 142°
2026-05-08 14:11 19.40458 94.56260 36865 ft 490 kts 142°
2026-05-08 14:12 19.35405 94.61105 36873 ft 489 kts 142°
2026-05-08 14:12 19.30355 94.65942 36869 ft 490 kts 142°
2026-05-08 14:13 19.25298 94.70781 36866 ft 491 kts 142°
2026-05-08 14:13 19.20178 94.75562 36868 ft 491 kts 142°
2026-05-08 14:14 19.15024 94.80308 36859 ft 492 kts 142°
2026-05-08 14:14 19.09870 94.85062 36864 ft 492 kts 142°
2026-05-08 14:15 19.04748 94.89798 36865 ft 492 kts 142°
2026-05-08 14:15 18.99592 94.94567 36856 ft 493 kts 142°
2026-05-08 14:16 18.94431 94.99335 36863 ft 493 kts 142°
2026-05-08 14:16 18.89266 95.04101 36856 ft 493 kts 142°
2026-05-08 14:17 18.84100 95.08864 36856 ft 493 kts 142°
2026-05-08 14:17 18.78933 95.13624 36852 ft 493 kts 142°
2026-05-08 14:18 18.73767 95.18380 36854 ft 493 kts 142°
2026-05-08 14:18 18.68605 95.23127 36857 ft 492 kts 142°
2026-05-08 14:19 18.63439 95.27874 36853 ft 492 kts 141°
2026-05-08 14:19 18.58278 95.32614 36855 ft 492 kts 141°
2026-05-08 14:20 18.53120 95.37346 36857 ft 491 kts 141°
2026-05-08 14:20 18.47961 95.42077 36858 ft 491 kts 141°
2026-05-08 14:21 18.43651 95.46039 36857 ft 491 kts 140°
2026-05-08 14:21 18.38876 95.50576 36860 ft 491 kts 140°
2026-05-08 14:22 18.33837 95.55423 36863 ft 491 kts 140°
2026-05-08 14:22 18.28790 95.60257 36865 ft 490 kts 140°
2026-05-08 14:23 18.23737 95.65075 36862 ft 490 kts 140°
2026-05-08 14:23 18.18681 95.69886 36864 ft 490 kts 139°
2026-05-08 14:24 18.13626 95.74693 36862 ft 490 kts 139°
2026-05-08 14:24 18.08573 95.79496 36869 ft 490 kts 139°
2026-05-08 14:25 18.03518 95.84297 36868 ft 490 kts 139°
2026-05-08 14:25 17.98462 95.89094 36867 ft 490 kts 139°
2026-05-08 14:26 17.93406 95.93887 36868 ft 490 kts 139°
2026-05-08 14:26 17.88349 95.98678 36870 ft 489 kts 139°
2026-05-08 14:27 17.83295 96.03462 36873 ft 489 kts 139°
2026-05-08 14:27 17.78240 96.08244 36874 ft 489 kts 139°
2026-05-08 14:28 17.73179 96.13026 36869 ft 489 kts 139°
2026-05-08 14:28 17.68118 96.17806 36870 ft 489 kts 139°
2026-05-08 14:29 17.63917 96.21771 36869 ft 489 kts 139°
2026-05-08 14:29 17.58858 96.26542 36872 ft 489 kts 139°
2026-05-08 14:30 17.53792 96.31316 36868 ft 490 kts 139°
2026-05-08 14:30 17.48727 96.36085 36869 ft 490 kts 139°
2026-05-08 14:31 17.43659 96.40854 36869 ft 490 kts 139°
2026-05-08 14:31 17.38587 96.45623 36867 ft 490 kts 139°
2026-05-08 14:32 17.30731 96.52435 36865 ft 489 kts 147°
2026-05-08 14:32 17.24789 96.55862 36871 ft 488 kts 154°
2026-05-08 14:33 17.18712 96.59036 36864 ft 488 kts 154°
2026-05-08 14:33 17.12643 96.62220 36869 ft 488 kts 154°
2026-05-08 14:34 17.06578 96.65438 36873 ft 489 kts 153°
2026-05-08 14:34 17.00516 96.68666 36874 ft 489 kts 153°
2026-05-08 14:35 16.94452 96.71895 36871 ft 490 kts 153°
2026-05-08 14:35 16.88381 96.75124 36874 ft 490 kts 153°
2026-05-08 14:36 16.82300 96.78354 36872 ft 490 kts 153°
2026-05-08 14:36 16.76219 96.81581 36871 ft 490 kts 153°
2026-05-08 14:37 16.70135 96.84808 36875 ft 491 kts 153°
2026-05-08 14:37 16.64047 96.88034 36873 ft 491 kts 153°
2026-05-08 14:38 16.57965 96.91256 36873 ft 491 kts 153°
2026-05-08 14:38 16.51879 96.94477 36875 ft 490 kts 153°
2026-05-08 14:39 16.45791 96.97696 36875 ft 490 kts 153°
2026-05-08 14:39 16.39711 97.00910 36873 ft 490 kts 153°
2026-05-08 14:40 16.33629 97.04122 36874 ft 490 kts 153°
2026-05-08 14:40 16.27550 97.07330 36872 ft 490 kts 153°
2026-05-08 14:41 16.21470 97.10536 36875 ft 490 kts 153°
2026-05-08 14:41 16.15399 97.13735 36880 ft 489 kts 153°
2026-05-08 14:42 16.09328 97.16933 36880 ft 489 kts 153°
2026-05-08 14:42 16.03257 97.20128 36882 ft 489 kts 152°
2026-05-08 14:43 15.97193 97.23317 36878 ft 488 kts 152°
2026-05-08 14:43 15.91263 97.26434 36880 ft 488 kts 152°
2026-05-08 14:44 15.85202 97.29618 36877 ft 488 kts 152°
2026-05-08 14:44 15.79143 97.32798 36884 ft 488 kts 152°
2026-05-08 14:45 15.73082 97.35977 36882 ft 488 kts 152°
2026-05-08 14:45 15.67016 97.39156 36882 ft 488 kts 152°
2026-05-08 14:46 15.60995 97.42310 36888 ft 488 kts 153°
2026-05-08 14:46 15.54931 97.45484 36889 ft 488 kts 153°
2026-05-08 14:47 15.48826 97.48678 36888 ft 488 kts 153°
2026-05-08 14:47 15.42798 97.51829 36892 ft 488 kts 153°
2026-05-08 14:48 15.36729 97.55000 36890 ft 489 kts 153°
2026-05-08 14:48 15.30658 97.58169 36892 ft 489 kts 153°
2026-05-08 14:49 15.24578 97.61342 36896 ft 489 kts 153°
2026-05-08 14:49 15.18503 97.64509 36896 ft 489 kts 153°
2026-05-08 14:50 15.12420 97.67679 36896 ft 489 kts 152°
2026-05-08 14:50 15.06344 97.70843 36897 ft 489 kts 152°
2026-05-08 14:51 15.01625 97.73299 36899 ft 489 kts 152°
2026-05-08 14:51 14.95543 97.76462 36904 ft 489 kts 152°
2026-05-08 14:52 14.86417 97.81205 36902 ft 489 kts 152°
2026-05-08 14:53 14.80332 97.84365 36910 ft 490 kts 152°
2026-05-08 14:53 14.74239 97.87528 36909 ft 491 kts 152°
2026-05-08 14:54 14.68132 97.90695 36906 ft 491 kts 152°
2026-05-08 14:54 14.62023 97.93861 36906 ft 491 kts 152°
2026-05-08 14:55 14.55912 97.97027 36916 ft 492 kts 152°
2026-05-08 14:55 14.49794 98.00194 36909 ft 492 kts 152°
2026-05-08 14:56 14.43677 98.03359 36913 ft 492 kts 152°
2026-05-08 14:56 14.37602 98.06500 36913 ft 492 kts 152°
2026-05-08 14:57 14.31484 98.09662 36911 ft 492 kts 152°
2026-05-08 14:57 14.25367 98.12821 36917 ft 491 kts 152°
2026-05-08 14:58 14.19259 98.15974 36918 ft 491 kts 152°
2026-05-08 14:58 14.13156 98.19123 36919 ft 490 kts 152°
2026-05-08 14:59 14.07058 98.22276 36922 ft 490 kts 152°
2026-05-08 14:59 13.97940 98.27055 36925 ft 490 kts 152°
2026-05-08 15:00 13.91855 98.30243 36923 ft 490 kts 152°
2026-05-08 15:00 13.85776 98.33421 36931 ft 490 kts 152°
2026-05-08 15:01 13.79700 98.36595 36930 ft 489 kts 152°
2026-05-08 15:01 13.73626 98.39767 36929 ft 489 kts 152°
2026-05-08 15:02 13.67557 98.42934 36932 ft 489 kts 152°
2026-05-08 15:02 13.61491 98.46098 36936 ft 489 kts 152°
2026-05-08 15:03 13.55429 98.49257 36932 ft 488 kts 152°
2026-05-08 15:03 13.49369 98.52415 36935 ft 488 kts 152°
2026-05-08 15:04 13.43329 98.55600 36938 ft 488 kts 151°
2026-05-08 15:04 13.37304 98.58810 36933 ft 487 kts 151°
2026-05-08 15:05 13.31280 98.62009 36945 ft 487 kts 152°
2026-05-08 15:05 13.25251 98.65203 36934 ft 488 kts 152°
2026-05-08 15:06 13.19221 98.68396 36935 ft 488 kts 152°
2026-05-08 15:06 13.13182 98.71592 36933 ft 488 kts 152°
2026-05-08 15:07 13.07139 98.74789 36936 ft 489 kts 152°
2026-05-08 15:07 13.01095 98.77985 36934 ft 489 kts 152°
2026-05-08 15:08 12.96063 98.80644 36937 ft 489 kts 152°
2026-05-08 15:08 12.88984 98.84383 36931 ft 490 kts 152°
2026-05-08 15:09 12.82926 98.87581 36939 ft 490 kts 152°
2026-05-08 15:09 12.76861 98.90781 36933 ft 490 kts 152°
2026-05-08 15:10 12.70791 98.93981 36935 ft 491 kts 152°
2026-05-08 15:10 12.64725 98.97178 36934 ft 491 kts 152°
2026-05-08 15:11 12.58651 99.00377 36931 ft 491 kts 152°
2026-05-08 15:11 12.52575 99.03576 36935 ft 491 kts 152°
2026-05-08 15:12 12.46504 99.06770 36940 ft 491 kts 152°
2026-05-08 15:12 12.41457 99.09424 36931 ft 491 kts 152°
2026-05-08 15:13 12.35379 99.12619 36935 ft 491 kts 152°
2026-05-08 15:13 12.29301 99.15813 36940 ft 491 kts 152°
2026-05-08 15:14 12.23217 99.19007 36936 ft 492 kts 152°
2026-05-08 15:14 12.17131 99.22202 36939 ft 492 kts 152°
2026-05-08 15:15 12.11039 99.25397 36940 ft 493 kts 152°
2026-05-08 15:15 12.04935 99.28598 36935 ft 493 kts 152°
2026-05-08 15:16 11.98831 99.31796 36939 ft 493 kts 152°
2026-05-08 15:16 11.92723 99.34995 36941 ft 493 kts 152°
2026-05-08 15:17 11.86613 99.38194 36933 ft 493 kts 152°
2026-05-08 15:17 11.80510 99.41387 36937 ft 492 kts 152°
2026-05-08 15:18 11.74421 99.44572 36927 ft 491 kts 152°
2026-05-08 15:18 11.68343 99.47750 36928 ft 490 kts 152°
2026-05-08 15:19 11.62287 99.50914 36926 ft 489 kts 152°
2026-05-08 15:19 11.56252 99.54085 36927 ft 487 kts 152°
2026-05-08 15:20 11.50237 99.57255 36924 ft 486 kts 152°
2026-05-08 15:20 11.44235 99.60416 36920 ft 485 kts 152°
2026-05-08 15:21 11.39553 99.62878 36920 ft 485 kts 152°
2026-05-08 15:21 11.33560 99.66029 36918 ft 485 kts 152°
2026-05-08 15:22 11.27565 99.69179 36915 ft 485 kts 152°
2026-05-08 15:22 11.21573 99.72327 36914 ft 485 kts 152°
2026-05-08 15:23 11.15578 99.75475 36912 ft 485 kts 152°
2026-05-08 15:23 11.09569 99.78590 36909 ft 485 kts 152°
2026-05-08 15:24 11.03531 99.81665 36916 ft 485 kts 152°
2026-05-08 15:24 10.97500 99.84743 36912 ft 485 kts 152°
2026-05-08 15:25 10.91474 99.87827 36913 ft 485 kts 152°
2026-05-08 15:25 10.85446 99.90906 36911 ft 485 kts 152°
2026-05-08 15:26 10.79417 99.93975 36909 ft 484 kts 152°
2026-05-08 15:26 10.73396 99.97039 36908 ft 484 kts 152°
2026-05-08 15:27 10.67376 100.00102 36911 ft 484 kts 152°
2026-05-08 15:27 10.61359 100.03164 36913 ft 483 kts 152°
2026-05-08 15:28 10.55345 100.06222 36914 ft 483 kts 152°
2026-05-08 15:28 10.49332 100.09279 36908 ft 483 kts 152°
2026-05-08 15:29 10.43322 100.12333 36912 ft 483 kts 152°
2026-05-08 15:29 10.37310 100.15386 36914 ft 483 kts 152°
2026-05-08 15:30 10.31299 100.18438 36912 ft 483 kts 152°
2026-05-08 15:30 10.25288 100.21489 36912 ft 483 kts 152°
2026-05-08 15:31 10.19274 100.24539 36915 ft 483 kts 152°
2026-05-08 15:31 10.13257 100.27590 36913 ft 483 kts 152°
2026-05-08 15:32 10.07234 100.30644 36911 ft 484 kts 152°
2026-05-08 15:32 10.01212 100.33695 36913 ft 484 kts 152°
2026-05-08 15:33 9.95188 100.36757 36910 ft 484 kts 152°
2026-05-08 15:33 9.89166 100.39821 36905 ft 485 kts 152°
2026-05-08 15:34 9.83129 100.42872 36904 ft 485 kts 153°
2026-05-08 15:34 9.77092 100.45919 36899 ft 485 kts 153°
2026-05-08 15:35 9.71054 100.48968 36897 ft 484 kts 153°
2026-05-08 15:35 9.65038 100.52040 36895 ft 484 kts 152°
2026-05-08 15:36 9.60055 100.54608 36898 ft 483 kts 152°
2026-05-08 15:36 9.53052 100.58208 36898 ft 483 kts 152°
2026-05-08 15:37 9.47067 100.61282 36899 ft 482 kts 152°
2026-05-08 15:37 9.41092 100.64355 36905 ft 482 kts 152°
2026-05-08 15:38 9.35117 100.67430 36904 ft 481 kts 152°
2026-05-08 15:38 9.29146 100.70500 36904 ft 482 kts 152°
2026-05-08 15:39 9.23166 100.73574 36906 ft 482 kts 152°
2026-05-08 15:39 9.17185 100.76646 36909 ft 483 kts 152°
2026-05-08 15:40 9.11195 100.79723 36912 ft 483 kts 152°
2026-05-08 15:40 9.05193 100.82804 36914 ft 484 kts 152°
2026-05-08 15:41 8.99188 100.85885 36915 ft 484 kts 152°
2026-05-08 15:41 8.93176 100.88969 36918 ft 484 kts 152°
2026-05-08 15:42 8.87164 100.92052 36915 ft 484 kts 152°
2026-05-08 15:42 8.81155 100.95133 36917 ft 484 kts 152°
2026-05-08 15:43 8.75140 100.98215 36918 ft 484 kts 152°
2026-05-08 15:43 8.69136 101.01291 36924 ft 484 kts 152°
2026-05-08 15:44 8.63137 101.04364 36921 ft 483 kts 152°
2026-05-08 15:44 8.57139 101.07435 36920 ft 483 kts 152°
2026-05-08 15:45 8.51152 101.10513 36923 ft 483 kts 152°
2026-05-08 15:45 8.45169 101.13599 36923 ft 483 kts 152°
2026-05-08 15:46 8.39361 101.16593 36923 ft 483 kts 152°
2026-05-08 15:46 8.33342 101.19692 36920 ft 483 kts 152°
2026-05-08 15:47 8.27397 101.22753 36926 ft 483 kts 152°
2026-05-08 15:47 8.21417 101.25829 36921 ft 483 kts 152°
2026-05-08 15:48 8.12438 101.30448 36925 ft 483 kts 152°
2026-05-08 15:49 8.06447 101.33528 36922 ft 483 kts 152°
2026-05-08 15:49 8.00452 101.36609 36922 ft 484 kts 152°
2026-05-08 15:50 7.94450 101.39693 36923 ft 484 kts 152°
2026-05-08 15:50 7.88443 101.42779 36925 ft 485 kts 152°
2026-05-08 15:51 7.83404 101.45366 36923 ft 485 kts 152°
2026-05-08 15:51 7.77661 101.48315 36925 ft 486 kts 152°
2026-05-08 15:52 7.71635 101.51408 36923 ft 486 kts 152°
2026-05-08 15:52 7.65578 101.54466 36925 ft 487 kts 155°
2026-05-08 15:53 7.59264 101.56955 36928 ft 488 kts 158°
2026-05-08 15:53 7.52886 101.59325 36920 ft 489 kts 158°
2026-05-08 15:54 7.46522 101.61710 36921 ft 489 kts 158°
2026-05-08 15:54 7.41172 101.63738 36922 ft 489 kts 158°
2026-05-08 15:55 7.34806 101.66159 36921 ft 490 kts 158°
2026-05-08 15:55 7.25236 101.69800 36923 ft 490 kts 158°
2026-05-08 15:56 7.18903 101.72206 36921 ft 490 kts 158°
2026-05-08 15:56 7.12523 101.74629 36916 ft 490 kts 158°
2026-05-08 15:57 7.06146 101.77050 36920 ft 490 kts 158°
2026-05-08 15:57 6.99763 101.79473 36922 ft 490 kts 158°
2026-05-08 15:58 6.93382 101.81894 36918 ft 490 kts 158°
2026-05-08 15:58 6.87001 101.84315 36917 ft 490 kts 158°
2026-05-08 15:59 6.80620 101.86735 36917 ft 490 kts 158°
2026-05-08 15:59 6.74233 101.89156 36919 ft 490 kts 158°
2026-05-08 16:00 6.67850 101.91576 36919 ft 490 kts 158°
2026-05-08 16:00 6.61469 101.93993 36917 ft 490 kts 158°
2026-05-08 16:01 6.55077 101.96415 36914 ft 491 kts 158°
2026-05-08 16:01 6.48690 101.98834 36918 ft 491 kts 158°
2026-05-08 16:02 6.42297 102.01255 36920 ft 491 kts 158°
2026-05-08 16:02 6.35900 102.03677 36913 ft 491 kts 158°
2026-05-08 16:03 6.29500 102.06099 36906 ft 492 kts 158°
2026-05-08 16:03 6.23077 102.08486 36898 ft 492 kts 159°
2026-05-08 16:04 6.16563 102.10627 36893 ft 493 kts 160°
2026-05-08 16:04 6.10032 102.12727 36896 ft 493 kts 160°
2026-05-08 16:05 6.03504 102.14858 36901 ft 493 kts 160°
2026-05-08 16:05 5.96983 102.17010 36896 ft 494 kts 160°
2026-05-08 16:06 5.90457 102.19167 36905 ft 494 kts 160°
2026-05-08 16:06 5.83926 102.21323 36911 ft 494 kts 160°
2026-05-08 16:07 5.77439 102.23463 36918 ft 494 kts 160°
2026-05-08 16:07 5.70932 102.25797 36920 ft 493 kts 156°
2026-05-08 16:08 5.64606 102.28364 36923 ft 493 kts 156°
2026-05-08 16:08 5.58239 102.30945 36926 ft 494 kts 156°
2026-05-08 16:09 5.51861 102.33496 36926 ft 494 kts 156°
2026-05-08 16:09 5.45473 102.36048 36923 ft 494 kts 156°
2026-05-08 16:10 5.39087 102.38598 36933 ft 494 kts 156°
2026-05-08 16:10 5.32694 102.41152 36922 ft 495 kts 156°
2026-05-08 16:11 5.26296 102.43707 36926 ft 495 kts 156°
2026-05-08 16:11 5.19896 102.46264 36930 ft 495 kts 156°
2026-05-08 16:12 5.13491 102.48819 36930 ft 496 kts 156°
2026-05-08 16:12 5.07083 102.51373 36928 ft 495 kts 156°
2026-05-08 16:13 5.00670 102.53923 36927 ft 495 kts 156°
2026-05-08 16:13 4.94270 102.56470 36933 ft 495 kts 156°
2026-05-08 16:14 4.87867 102.59022 36928 ft 495 kts 156°
2026-05-08 16:14 4.81471 102.61574 36929 ft 495 kts 156°
2026-05-08 16:15 4.75073 102.64127 36924 ft 495 kts 156°
2026-05-08 16:15 4.68678 102.66678 36923 ft 495 kts 156°
2026-05-08 16:16 4.62288 102.69226 36931 ft 494 kts 156°
2026-05-08 16:16 4.55893 102.71775 36928 ft 494 kts 156°
2026-05-08 16:17 4.50584 102.73889 36929 ft 494 kts 156°
2026-05-08 16:17 4.43116 102.76862 36925 ft 494 kts 156°
2026-05-08 16:18 4.36729 102.79406 36921 ft 494 kts 156°
2026-05-08 16:18 4.30341 102.81950 36922 ft 494 kts 156°
2026-05-08 16:19 4.23955 102.84493 36921 ft 494 kts 156°
2026-05-08 16:19 4.17566 102.87036 36913 ft 494 kts 156°
2026-05-08 16:20 4.11184 102.89577 36911 ft 494 kts 156°
2026-05-08 16:20 4.04797 102.92118 36908 ft 494 kts 156°
2026-05-08 16:21 3.99767 102.94119 36904 ft 494 kts 156°
2026-05-08 16:21 3.93382 102.96659 36905 ft 493 kts 156°
2026-05-08 16:22 3.87012 102.99194 36905 ft 493 kts 156°
2026-05-08 16:22 3.80644 103.01727 36909 ft 492 kts 156°
2026-05-08 16:23 3.74283 103.04255 36902 ft 492 kts 157°
2026-05-08 16:23 3.67931 103.06779 36901 ft 491 kts 157°
2026-05-08 16:24 3.61577 103.09302 36909 ft 491 kts 157°
2026-05-08 16:24 3.55218 103.11827 36904 ft 492 kts 157°
2026-05-08 16:25 3.48849 103.14357 36900 ft 492 kts 157°
2026-05-08 16:25 3.42481 103.16886 36899 ft 493 kts 157°
2026-05-08 16:26 3.36108 103.19417 36897 ft 493 kts 157°
2026-05-08 16:26 3.29967 103.22403 36898 ft 490 kts 146°
2026-05-08 16:27 3.24698 103.26681 36893 ft 488 kts 133°
2026-05-08 16:27 3.20070 103.31645 36902 ft 488 kts 131°
2026-05-08 16:28 3.15467 103.36635 36899 ft 488 kts 132°
2026-05-08 16:28 3.10831 103.41585 36902 ft 487 kts 132°
2026-05-08 16:29 3.06184 103.46509 36825 ft 484 kts 133°
2026-05-08 16:29 3.03871 103.48960 36355 ft 485 kts 133°
2026-05-08 16:29 3.01555 103.51414 35678 ft 485 kts 132°
2026-05-08 16:30 2.99268 103.53839 34896 ft 487 kts 132°
2026-05-08 16:30 2.96938 103.56311 34058 ft 490 kts 132°
2026-05-08 16:30 2.94596 103.58795 33046 ft 493 kts 132°
2026-05-08 16:30 2.92240 103.61294 32080 ft 495 kts 132°
2026-05-08 16:31 2.89874 103.63804 31351 ft 493 kts 132°
2026-05-08 16:31 2.87635 103.66335 31012 ft 481 kts 129°
2026-05-08 16:31 2.85474 103.68888 30223 ft 481 kts 129°
2026-05-08 16:31 2.83337 103.71456 29384 ft 480 kts 128°
2026-05-08 16:32 2.81213 103.74017 28743 ft 475 kts 128°
2026-05-08 16:32 2.79110 103.76545 28193 ft 470 kts 128°
2026-05-08 16:32 2.77027 103.79039 27664 ft 465 kts 128°
2026-05-08 16:32 2.74953 103.81515 27137 ft 463 kts 128°
2026-05-08 16:33 2.72881 103.83982 26617 ft 463 kts 129°
2026-05-08 16:33 2.70813 103.86444 26097 ft 461 kts 128°
2026-05-08 16:33 2.68755 103.88892 25591 ft 459 kts 128°
2026-05-08 16:33 2.66706 103.91330 25058 ft 456 kts 128°
2026-05-08 16:34 2.64672 103.93750 24545 ft 453 kts 128°
2026-05-08 16:34 2.62649 103.96158 24021 ft 450 kts 128°
2026-05-08 16:34 2.60641 103.98547 23511 ft 446 kts 128°
2026-05-08 16:34 2.58669 104.00894 22990 ft 429 kts 128°
2026-05-08 16:35 2.56826 104.03084 22762 ft 394 kts 128°
2026-05-08 16:35 2.55129 104.05101 22471 ft 366 kts 128°
2026-05-08 16:35 2.53536 104.06996 21939 ft 348 kts 128°
2026-05-08 16:35 2.51958 104.08784 21295 ft 340 kts 136°
2026-05-08 16:36 2.49935 104.10042 20699 ft 349 kts 156°
2026-05-08 16:36 2.47564 104.10590 20216 ft 353 kts 174°
2026-05-08 16:36 2.45107 104.10639 19820 ft 353 kts 178°
2026-05-08 16:36 2.42650 104.10615 19393 ft 354 kts 178°
2026-05-08 16:37 2.40189 104.10578 18981 ft 354 kts 178°
2026-05-08 16:37 2.37727 104.10547 18565 ft 354 kts 178°
2026-05-08 16:37 2.35265 104.10525 18152 ft 354 kts 178°
2026-05-08 16:37 2.32805 104.10512 17677 ft 350 kts 178°
2026-05-08 16:38 2.30415 104.10505 17247 ft 337 kts 178°
2026-05-08 16:38 2.28133 104.10503 16868 ft 329 kts 178°
2026-05-08 16:38 2.25847 104.10501 16491 ft 328 kts 178°
2026-05-08 16:38 2.23566 104.10501 16127 ft 327 kts 178°
2026-05-08 16:39 2.21293 104.10501 15744 ft 327 kts 178°
2026-05-08 16:39 2.19021 104.10500 15373 ft 326 kts 178°
2026-05-08 16:39 2.16754 104.10500 15000 ft 326 kts 178°
2026-05-08 16:39 2.14488 104.10500 14616 ft 326 kts 178°
2026-05-08 16:40 2.12219 104.10500 14229 ft 326 kts 179°
2026-05-08 16:40 2.09949 104.10500 13861 ft 326 kts 179°
2026-05-08 16:40 2.07685 104.10500 13480 ft 325 kts 179°
2026-05-08 16:40 2.05431 104.10500 13127 ft 323 kts 179°
2026-05-08 16:41 2.03948 104.10500 12902 ft 321 kts 179°
2026-05-08 16:41 2.01737 104.10500 12508 ft 312 kts 179°
2026-05-08 16:41 1.99608 104.10499 12111 ft 299 kts 179°
2026-05-08 16:42 1.95629 104.10512 11462 ft 280 kts 179°
2026-05-08 16:42 1.93677 104.10524 11134 ft 280 kts 179°
2026-05-08 16:42 1.91729 104.10536 10803 ft 278 kts 179°
2026-05-08 16:42 1.89829 104.10547 10465 ft 269 kts 179°
2026-05-08 16:43 1.87960 104.10557 10170 ft 269 kts 179°
2026-05-08 16:43 1.86090 104.10568 9855 ft 269 kts 179°
2026-05-08 16:43 1.84216 104.10578 9514 ft 269 kts 179°
2026-05-08 16:43 1.82346 104.10588 9191 ft 269 kts 179°
2026-05-08 16:44 1.80476 104.10599 8878 ft 268 kts 180°
2026-05-08 16:44 1.78615 104.10609 8562 ft 267 kts 180°
2026-05-08 16:44 1.76754 104.10619 8249 ft 267 kts 180°
2026-05-08 16:44 1.74924 104.10628 7937 ft 260 kts 180°
2026-05-08 16:45 1.73118 104.10638 7643 ft 259 kts 180°
2026-05-08 16:45 1.71314 104.10648 7341 ft 259 kts 180°
2026-05-08 16:45 1.69522 104.10658 6966 ft 254 kts 180°
2026-05-08 16:45 1.67781 104.10667 6659 ft 248 kts 180°
2026-05-08 16:46 1.66054 104.10662 6358 ft 246 kts 185°
2026-05-08 16:46 1.64440 104.10281 5876 ft 240 kts 200°
2026-05-08 16:46 1.62894 104.09650 5245 ft 240 kts 204°
2026-05-08 16:46 1.61395 104.08996 4897 ft 228 kts 204°
2026-05-08 16:47 1.59952 104.08374 4604 ft 225 kts 203°
2026-05-08 16:47 1.58526 104.07766 4343 ft 222 kts 203°
2026-05-08 16:47 1.57122 104.07169 4009 ft 215 kts 203°
2026-05-08 16:47 1.55778 104.06599 3732 ft 205 kts 203°
2026-05-08 16:48 1.54492 104.06053 3468 ft 198 kts 203°
2026-05-08 16:48 1.53235 104.05519 3235 ft 195 kts 203°
2026-05-08 16:48 1.51997 104.04994 2987 ft 192 kts 203°
2026-05-08 16:48 1.50776 104.04476 2736 ft 190 kts 202°
2026-05-08 16:49 1.49566 104.03962 2497 ft 188 kts 202°
2026-05-08 16:49 1.48388 104.03462 2282 ft 177 kts 202°
2026-05-08 16:49 1.47303 104.03001 2044 ft 163 kts 202°
2026-05-08 16:49 1.46297 104.02574 1853 ft 155 kts 202°
2026-05-08 16:50 1.45301 104.02152 1672 ft 157 kts 202°
2026-05-08 16:50 1.44297 104.01726 1448 ft 156 kts 202°
2026-05-08 16:50 1.43308 104.01306 1255 ft 153 kts 202°
2026-05-08 16:50 1.42340 104.00896 1049 ft 149 kts 202°
2026-05-08 16:51 1.41710 104.00628 928 ft 148 kts 202°
2026-05-08 16:51 1.40858 104.00265 737 ft 148 kts 203°
2026-05-08 16:51 1.39917 103.99871 565 ft 146 kts 202°
2026-05-08 16:51 1.38981 103.99476 350 ft 146 kts 203°
2026-05-08 16:52 1.38056 103.99078 159 ft 145 kts 203°
2026-05-08 16:52 1.37130 103.98686 40 ft 141 kts 203°
2026-05-08 16:52 1.36378 103.98370 35 ft 86 kts 203°
2026-05-08 16:52 1.36002 103.98210 35 ft 49 kts 203°
2026-05-08 16:53 1.35563 103.98120 35 ft 13 kts 161°
2026-05-08 16:53 1.35522 103.98179 35 ft 11 kts 87°
2026-05-08 16:53 1.35569 103.98223 35 ft 10 kts 23°
2026-05-08 16:54 1.35632 103.98250 35 ft 10 kts 23°
2026-05-08 16:54 1.35695 103.98278 35 ft 10 kts 23°
2026-05-08 16:54 1.35770 103.98310 35 ft 14 kts 23°
2026-05-08 16:54 1.35862 103.98350 35 ft 15 kts 23°
2026-05-08 16:55 1.35955 103.98389 35 ft 15 kts 22°
2026-05-08 16:55 1.36048 103.98428 35 ft 15 kts 22°
2026-05-08 16:55 1.36151 103.98471 35 ft 19 kts 22°
2026-05-08 16:55 1.36273 103.98522 35 ft 19 kts 22°
2026-05-08 16:56 1.36389 103.98570 35 ft 14 kts 22°
2026-05-08 16:56 1.36426 103.98628 35 ft 11 kts 98°
2026-05-08 16:56 1.36397 103.98698 35 ft 11 kts 112°
2026-05-08 16:56 1.36349 103.98753 35 ft 11 kts 155°
2026-05-08 16:57 1.36307 103.98814 35 ft 9 kts 114°
2026-05-08 16:57 1.36299 103.98832 35 ft 0 kts 114°